GW3101 Weather Reports


Display with metric or nautical units.
time (UTC)temp
F
wind
direction
speed
MPH
gust
MPH
rain 1hr
in
rain 24hr
in
rain mn
in
humidity
%
barometer
mb
20260507023909 57 314 1.0 1.0 0.07 0.37 0.37 99 1007.0
20260507023406 57 20 2.0 2.0 0.00 0.36 0.36 99 1006.7
20260507022903 57 209 0.0 0.0 0.00 0.36 0.36 99 1006.6
20260507022400 57 192 1.0 2.0 0.00 0.36 0.36 99 1006.5
20260507021856 57 48 0.0 1.0 0.00 0.36 0.36 99 1006.5
20260507021351 57 300 0.0 1.0 0.00 0.36 0.36 99 1006.7
20260507020849 57 307 0.0 1.0 0.00 0.36 0.36 99 1006.5
20260507020345 57 213 0.0 2.0 0.00 0.36 0.36 99 1006.6
20260507015842 57 156 0.0 0.0 0.00 0.36 0.36 99 1006.3
20260507015340 57 163 0.0 0.0 0.00 0.36 0.36 99 1006.5
20260507014837 57 222 1.0 1.0 0.00 0.36 0.36 99 1006.7
20260507014333 57 353 0.0 0.0 0.00 0.36 0.36 99 1006.8
20260507013830 57 262 1.0 2.0 0.00 0.36 0.36 99 1006.6
20260507013327 57 228 0.0 0.0 0.00 0.36 0.36 99 1006.7
20260507012825 57 61 3.0 5.0 0.00 0.36 0.36 99 1006.6
20260507012320 57 277 0.0 0.0 0.00 0.36 0.36 99 1006.6
20260507011818 57 304 0.0 0.0 0.00 0.36 0.36 99 1006.5
20260507011314 57 196 0.0 0.0 0.00 0.36 0.36 99 1006.5
20260507010814 57 178 0.0 0.0 0.00 0.36 0.36 99 1006.3
20260507010310 57 187 0.0 1.0 0.00 0.36 0.36 99 1006.2
20260507005807 56 182 0.0 0.0 0.00 0.36 0.36 99 1006.2
20260507005305 56 130 0.0 0.0 0.00 0.36 0.36 99 1006.5
20260507004801 56 244 2.0 3.0 0.00 0.36 0.36 99 1006.5
20260507004258 56 173 1.0 1.0 0.00 0.36 0.36 99 1006.7
20260507003754 56 164 2.0 5.0 0.00 0.36 0.36 99 1006.5
20260507003249 56 226 3.0 5.0 0.00 0.36 0.36 99 1006.9
20260507002746 56 303 2.0 2.0 0.00 0.36 0.36 99 1006.7
20260507002242 56 198 1.0 2.0 0.00 0.36 0.36 99 1006.8
20260507001739 56 168 1.0 1.0 0.05 0.36 0.36 99 1006.7
20260507001236 56 332 1.0 1.0 0.05 0.36 0.36 99 1006.8
20260507000732 56 158 0.0 1.0 0.00 0.35 0.35 99 1006.8
20260507000228 56 235 3.0 5.0 0.00 0.35 0.35 99 1006.4
20260506235725 57 195 5.0 6.0 0.00 0.35 0.35 99 1006.4
20260506235221 57 221 0.0 1.0 0.00 0.35 0.35 99 1006.4
20260506234718 57 170 4.0 5.0 0.00 0.35 0.35 99 1006.3
20260506234215 57 136 0.0 1.0 0.00 0.35 0.35 99 1006.5
20260506233713 57 131 0.0 0.0 0.00 0.35 0.35 99 1006.3
20260506233209 57 189 0.0 1.0 0.00 0.35 0.35 99 1006.1
20260506232706 57 134 0.0 0.0 0.00 0.35 0.35 99 1006.1
20260506232200 57 161 0.0 0.0 0.00 0.35 0.35 99 1006.2
20260506231658 57 195 3.0 6.0 0.00 0.35 0.35 99 1006.1
20260506231156 57 299 1.0 1.0 0.00 0.35 0.35 99 1005.9
20260506230653 57 199 1.0 1.0 0.00 0.35 0.35 99 1006.1
20260506230149 57 169 2.0 2.0 0.00 0.35 0.35 99 1006.3
20260506225646 57 162 7.0 7.0 0.07 0.35 0.35 99 1006.2
20260506225143 57 176 0.0 0.0 0.12 0.35 0.35 99 1006.0
20260506224639 57 234 0.0 0.0 0.05 0.34 0.34 99 1006.1
20260506224136 57 133 0.0 0.0 0.00 0.33 0.33 99 1006.0
20260506223632 57 265 2.0 2.0 0.07 0.33 0.33 99 1005.8
20260506223128 57 171 1.0 2.0 0.19 0.33 0.33 99 1006.3
20260506222626 57 145 0.0 1.0 0.17 0.32 0.32 99 1006.2
20260506222122 57 218 1.0 1.0 0.05 0.30 0.30 99 1006.0
20260506221620 57 175 1.0 1.0 0.00 0.29 0.29 99 1006.1
20260506221117 57 198 1.0 2.0 0.00 0.29 0.29 99 1006.0
20260506220614 57 155 1.0 1.0 0.00 0.29 0.29 99 1006.1
20260506220109 57 228 0.0 0.0 0.07 0.29 0.29 99 1006.0
20260506215606 57 278 2.0 2.0 0.07 0.29 0.29 99 1006.2
20260506215101 57 253 1.0 2.0 0.00 0.28 0.28 99 1006.0
20260506214559 57 226 3.0 5.0 0.00 0.28 0.28 99 1006.0
20260506214056 57 172 5.0 6.0 0.00 0.28 0.28 99 1006.1
20260506213554 57 44 1.0 2.0 0.00 0.28 0.28 99 1006.2
20260506213051 57 177 1.0 2.0 0.05 0.28 0.28 99 1006.3
20260506212548 57 197 0.0 0.0 0.05 0.28 0.28 99 1006.0
20260506212042 57 182 4.0 5.0 0.07 0.27 0.27 99 1006.2
20260506211539 57 190 2.0 2.0 0.14 0.27 0.27 99 1006.3
20260506211036 57 142 3.0 3.0 0.12 0.26 0.26 99 1006.3
20260506210532 57 139 2.0 2.0 0.17 0.25 0.25 99 1006.4
20260506210029 57 277 1.0 1.0 0.19 0.24 0.24 99 1006.3
20260506205526 57 181 3.0 5.0 0.12 0.22 0.22 99 1006.8
20260506205021 57 167 2.0 2.0 0.12 0.21 0.21 99 1006.7
20260506204520 57 151 0.0 0.0 0.07 0.20 0.20 99 1006.7
20260506204016 57 148 1.0 1.0 0.00 0.19 0.19 99 1006.8
20260506203515 57 179 1.0 2.0 0.05 0.19 0.19 99 1006.7
20260506203011 57 173 0.0 0.0 0.12 0.19 0.19 99 1006.6
20260506202508 57 182 2.0 2.0 0.12 0.18 0.18 99 1006.9
20260506202004 57 225 2.0 2.0 0.12 0.17 0.17 99 1006.7
20260506201502 57 171 5.0 6.0 0.07 0.16 0.16 99 1006.8
20260506200958 57 150 4.0 6.0 0.05 0.15 0.15 99 1006.7
20260506200454 57 192 3.0 3.0 0.05 0.15 0.15 99 1006.9
20260506195951 57 154 2.0 3.0 0.07 0.14 0.14 99 1007.0
20260506195448 57 154 3.0 5.0 0.07 0.14 0.14 99 1007.2
20260506194944 57 138 4.0 7.0 0.00 0.13 0.13 99 1007.1
20260506194442 57 283 3.0 6.0 0.00 0.13 0.13 99 1007.1
20260506193933 57 186 5.0 6.0 0.00 0.13 0.13 99 1007.4
20260506193430 57 217 3.0 3.0 0.00 0.13 0.13 99 1007.6
20260506192927 57 116 1.0 1.0 0.00 0.13 0.13 99 1007.4
20260506192424 57 173 1.0 1.0 0.07 0.13 0.13 99 1007.4
20260506191920 57 117 1.0 2.0 0.07 0.13 0.13 99 1007.3
20260506191417 57 142 3.0 3.0 0.00 0.12 0.12 99 1007.2
20260506190914 57 225 2.0 2.0 0.00 0.12 0.12 99 1007.6
20260506190410 57 202 3.0 5.0 0.05 0.12 0.12 98 1007.5
20260506185907 57 148 0.0 0.0 0.05 0.12 0.12 98 1007.7
20260506185404 57 229 1.0 2.0 0.07 0.11 0.11 98 1007.5
20260506184902 58 232 0.0 0.0 0.07 0.11 0.11 98 1007.6
20260506184358 58 279 2.0 3.0 0.05 0.10 0.10 98 1007.6
20260506183856 58 205 3.0 3.0 0.12 0.10 0.10 97 1007.6
20260506183350 58 170 2.0 2.0 0.12 0.09 0.09 97 1007.3
20260506182848 59 167 5.0 7.0 0.19 0.09 0.09 96 1007.6
20260506182345 59 165 3.0 5.0 0.17 0.08 0.08 96 1007.6
20260506181843 59 152 4.0 6.0 0.12 0.06 0.06 95 1007.8
20260506181341 59 286 1.0 1.0 0.12 0.05 0.05 94 1007.9
20260506180837 60 173 0.0 0.0 0.12 0.04 0.04 94 1007.9
20260506180333 60 243 1.0 1.0 0.14 0.03 0.03 93 1008.3
20260506175830 60 183 0.0 0.0 0.07 0.02 0.02 92 1008.0
20260506175327 60 253 1.0 1.0 0.00 0.01 0.01 91 1008.2
20260506174824 61 154 0.0 1.0 0.05 0.01 0.01 91 1008.4
20260506174321 61 147 0.0 0.0 0.05 0.01 0.01 89 1008.4
20260506173819 61 270 2.0 5.0 0.00 0.00 0.00 88 1008.3
20260506173315 62 195 1.0 1.0 0.00 0.00 0.00 87 1008.5
20260506172813 63 181 1.0 1.0 0.00 0.00 0.00 86 1008.7
20260506172309 63 355 0.0 1.0 0.00 0.00 0.00 84 1008.8
20260506171807 64 215 3.0 3.0 0.00 0.00 0.00 82 1008.7
20260506171303 65 5 2.0 2.0 0.00 0.00 0.00 80 1008.7
20260506170801 66 139 3.0 3.0 0.00 0.00 0.00 78 1008.7
20260506170257 66 22 3.0 5.0 0.00 0.00 0.00 76 1008.5
20260506165756 67 193 3.0 3.0 0.00 0.00 0.00 75 1008.6
20260506165253 67 195 2.0 5.0 0.00 0.00 0.00 74 1008.7
20260506164750 68 165 2.0 3.0 0.00 0.00 0.00 74 1008.3
20260506164246 67 125 7.0 8.0 0.00 0.00 0.00 74 1008.5
20260506163744 68 203 6.0 8.0 0.00 0.00 0.00 73 1008.3
20260506163238 68 119 11.0 14.0 0.00 0.00 0.00 73 1008.3
20260506162734 68 177 4.0 6.0 0.00 0.00 0.00 72 1008.4
20260506162232 67 148 4.0 5.0 0.00 0.00 0.00 74 1008.4
20260506161724 68 183 1.0 2.0 0.00 0.00 0.00 73 1008.5
20260506161221 68 281 2.0 2.0 0.00 0.00 0.00 73 1008.6
20260506160718 68 27 1.0 1.0 0.00 0.00 0.00 73 1008.8
20260506160215 68 256 3.0 3.0 0.00 0.00 0.00 72 1008.8
20260506155713 68 167 7.0 10.0 0.00 0.00 0.00 71 1008.8
20260506155210 68 175 2.0 2.0 0.00 0.00 0.00 71 1008.6
20260506153312 68 185 2.0 2.0 0.00 0.00 0.00 71 1008.8
20260506152809 68 193 3.0 5.0 0.00 0.00 0.00 71 1009.0
20260506152306 69 183 2.0 3.0 0.00 0.00 0.00 70 1008.9
20260506151805 69 244 4.0 6.0 0.00 0.00 0.00 70 1008.9
20260506151301 69 139 2.0 2.0 0.00 0.00 0.00 71 1009.1
20260506150758 69 292 3.0 5.0 0.00 0.00 0.00 72 1009.2
20260506150303 68 167 5.0 7.0 0.00 0.00 0.00 71 1009.2
20260506145752 68 243 5.0 7.0 0.00 0.00 0.00 72 1009.2
20260506145248 68 253 1.0 1.0 0.00 0.00 0.00 73 1009.3
20260506144746 69 133 5.0 8.0 0.00 0.00 0.00 71 1009.2
20260506144243 69 178 3.0 7.0 0.00 0.00 0.00 72 1009.2
20260506143740 68 209 3.0 5.0 0.00 0.00 0.00 73 1009.2
20260506143237 68 226 5.0 7.0 0.00 0.00 0.00 73 1009.6
20260506142736 67 257 3.0 3.0 0.00 0.00 0.00 75 1009.4
20260506142233 66 253 4.0 6.0 0.00 0.00 0.00 76 1009.3
20260506141731 66 165 3.0 6.0 0.00 0.00 0.00 77 1009.6
20260506141229 65 165 4.0 5.0 0.00 0.00 0.00 78 1009.5
20260506140727 66 171 5.0 6.0 0.00 0.00 0.00 78 1009.3
20260506140223 66 259 4.0 5.0 0.00 0.00 0.00 78 1009.4
20260506135720 66 201 2.0 2.0 0.00 0.00 0.00 78 1009.4
20260506135216 66 219 3.0 3.0 0.00 0.00 0.00 78 1009.3
20260506134714 66 175 2.0 3.0 0.00 0.00 0.00 79 1009.0
20260506134209 66 207 1.0 1.0 0.00 0.00 0.00 79 1009.2
20260506133707 65 209 2.0 3.0 0.00 0.00 0.00 79 1009.3
20260506133203 65 194 3.0 3.0 0.00 0.00 0.00 81 1009.3
20260506132701 65 317 4.0 8.0 0.00 0.00 0.00 81 1009.2
20260506132157 65 168 3.0 3.0 0.00 0.00 0.00 81 1009.4
20260506131655 64 197 4.0 5.0 0.00 0.00 0.00 82 1009.6
20260506131151 64 172 5.0 9.0 0.00 0.00 0.00 82 1009.7
20260506130648 63 196 4.0 7.0 0.00 0.00 0.00 84 1009.6
20260506130146 63 196 1.0 1.0 0.00 0.00 0.00 85 1009.8
20260506125644 63 218 2.0 3.0 0.00 0.00 0.00 85 1009.7
20260506125141 63 155 5.0 8.0 0.00 0.00 0.00 85 1009.8
20260506124639 63 267 2.0 3.0 0.00 0.00 0.00 86 1009.7
20260506124136 62 209 0.0 1.0 0.00 0.00 0.00 86 1010.0
20260506123634 62 221 3.0 3.0 0.00 0.00 0.00 87 1009.8
20260506123132 62 161 1.0 2.0 0.00 0.00 0.00 88 1009.8
20260506122629 61 102 1.0 2.0 0.00 0.00 0.00 88 1009.7
20260506122126 61 229 4.0 6.0 0.00 0.00 0.00 88 1009.8
20260506121624 61 147 3.0 5.0 0.00 0.00 0.00 90 1010.1
20260506121120 60 126 0.0 1.0 0.00 0.00 0.00 90 1009.8
20260506120618 60 165 3.0 3.0 0.00 0.00 0.00 91 1010.0
20260506120115 60 184 3.0 3.0 0.00 0.00 0.00 91 1009.8
20260506115614 59 210 0.0 1.0 0.00 0.00 0.00 92 1010.2
20260506115112 59 258 2.0 3.0 0.00 0.00 0.00 92 1010.0
20260506114608 59 131 2.0 3.0 0.00 0.00 0.00 92 1009.6
20260506114107 59 124 3.0 6.0 0.00 0.00 0.00 93 1009.6
20260506113604 58 160 0.0 0.0 0.00 0.00 0.00 94 1010.0
20260506113101 58 251 1.0 3.0 0.00 0.00 0.00 94 1010.2
20260506112558 57 162 3.0 3.0 0.00 0.00 0.00 95 1010.2
20260506112055 57 172 3.0 5.0 0.00 0.00 0.00 96 1010.3
20260506111553 56 213 1.0 1.0 0.00 0.00 0.00 96 1010.5
20260506111050 56 148 1.0 1.0 0.00 0.00 0.00 96 1010.4
20260506110548 56 217 1.0 2.0 0.00 0.00 0.00 96 1010.5
20260506110045 56 182 2.0 2.0 0.00 0.00 0.00 96 1010.5
20260506105541 56 143 5.0 7.0 0.00 0.00 0.00 96 1010.4
20260506105039 56 173 1.0 1.0 0.00 0.00 0.00 97 1010.1
20260506104536 55 140 2.0 2.0 0.00 0.00 0.00 97 1010.0
20260506104034 55 129 0.0 0.0 0.00 0.00 0.00 97 1010.0
20260506103531 55 138 0.0 1.0 0.00 0.00 0.00 97 1010.1
20260506103027 55 131 1.0 2.0 0.00 0.00 0.00 97 1010.2
20260506102526 55 133 0.0 1.0 0.00 0.00 0.00 97 1010.1
20260506102023 54 171 0.0 1.0 0.00 0.00 0.00 97 1010.1
20260506101519 54 128 2.0 2.0 0.00 0.00 0.00 97 1010.1
20260506101017 55 221 0.0 0.0 0.00 0.00 0.00 97 1010.1
20260506100515 54 137 0.0 0.0 0.00 0.00 0.00 97 1010.2
20260506100013 55 175 0.0 0.0 0.00 0.00 0.00 97 1010.0
20260506095511 54 132 0.0 1.0 0.00 0.00 0.00 97 1010.0
20260506095007 54 134 0.0 1.0 0.00 0.00 0.00 96 1010.1
20260506094505 54 102 0.0 0.0 0.00 0.00 0.00 96 1009.8
20260506094003 55 198 0.0 0.0 0.00 0.00 0.00 96 1010.1
20260506093501 55 177 0.0 1.0 0.00 0.00 0.00 96 1009.8
20260506092958 55 150 3.0 3.0 0.00 0.00 0.00 96 1009.7
20260506092456 55 153 2.0 2.0 0.00 0.00 0.00 95 1010.1
20260506091952 55 195 1.0 1.0 0.00 0.00 0.00 95 1010.0
20260506091451 55 179 0.0 0.0 0.00 0.00 0.00 95 1010.1
20260506090947 55 109 0.0 1.0 0.00 0.00 0.00 95 1010.1
20260506090445 55 191 0.0 0.0 0.00 0.00 0.00 95 1010.0
20260506085941 55 128 0.0 0.0 0.00 0.00 0.00 94 1009.8
20260506085438 55 146 1.0 2.0 0.00 0.00 0.00 95 1010.3
20260506084935 55 236 0.0 0.0 0.00 0.00 0.00 94 1010.4
20260506084432 55 81 0.0 0.0 0.00 0.00 0.00 94 1010.3
20260506083927 55 151 1.0 2.0 0.00 0.00 0.00 94 1010.1
20260506083425 56 108 0.0 1.0 0.00 0.00 0.00 94 1009.8
20260506082922 56 104 0.0 0.0 0.00 0.00 0.00 93 1010.2
20260506082419 56 134 1.0 1.0 0.00 0.00 0.00 93 1010.2
20260506081915 56 112 1.0 2.0 0.00 0.00 0.00 93 1010.1
20260506081414 56 217 0.0 0.0 0.00 0.00 0.00 93 1010.1
20260506080910 56 138 0.0 1.0 0.00 0.00 0.00 93 1010.4
20260506080407 56 260 1.0 2.0 0.00 0.00 0.00 93 1010.5
20260506073351 56 185 1.0 1.0 0.00 0.00 0.00 91 1010.7
20260506072848 57 132 2.0 2.0 0.00 0.00 0.00 91 1010.4
20260506072346 57 223 0.0 0.0 0.00 0.00 0.00 90 1010.4
20260506071843 56 147 3.0 6.0 0.00 0.00 0.00 91 1010.3
20260506071341 57 188 1.0 1.0 0.00 0.00 0.00 91 1010.6
20260506070837 57 156 1.0 2.0 0.00 0.00 0.00 90 1009.8
20260506070335 57 174 4.0 5.0 0.00 0.00 0.00 91 1010.4
20260506062312 58 169 2.0 2.0 0.00 0.00 0.00 88 1010.3
20260506061808 58 166 1.0 2.0 0.00 0.00 0.00 88 1010.3
20260506061305 58 154 0.0 1.0 0.00 0.00 0.00 87 1010.0
20260506060803 58 200 5.0 7.0 0.00 0.00 0.00 87 1010.3
20260506060301 58 279 4.0 6.0 0.00 0.00 0.00 87 1010.2
20260506051232 60 181 1.0 1.0 0.00 0.00 0.00 83 1010.7
20260506050730 60 132 0.0 1.0 0.00 0.00 0.00 83 1010.5
20260506050227 60 191 0.0 0.0 0.00 0.00 0.00 82 1010.6
20260506044718 60 128 1.0 1.0 0.00 0.00 0.00 81 1010.6
20260506044215 60 227 0.0 1.0 0.00 0.00 0.00 81 1010.7
20260506043713 60 183 1.0 1.0 0.00 0.00 0.00 80 1010.8
20260506043210 60 157 1.0 1.0 0.00 0.00 0.00 80 1010.8
20260506042709 60 136 2.0 2.0 0.00 0.00 0.00 80 1010.7
20260506042207 60 177 1.0 1.0 0.00 0.00 0.00 79 1010.6
20260506041705 60 94 0.0 0.0 0.00 0.00 0.00 79 1010.8
20260506041201 60 162 5.0 7.0 0.00 0.00 0.00 79 1010.9
20260506040659 60 123 2.0 2.0 0.00 0.00 0.00 78 1010.8
20260506040156 60 176 2.0 2.0 0.00 0.00 0.00 78 1010.7
20260506035652 60 127 3.0 3.0 0.00 0.00 0.00 78 1010.8
20260506035149 61 185 2.0 2.0 0.00 0.00 0.00 77 1010.9
20260506034646 61 135 5.0 6.0 0.00 0.00 0.00 77 1010.9
20260506034143 61 171 3.0 3.0 0.00 0.00 0.00 77 1010.9
20260506033641 61 154 2.0 3.0 0.00 0.00 0.00 76 1010.8
20260506033137 61 145 1.0 2.0 0.00 0.00 0.00 77 1010.8
20260506032635 61 104 0.0 1.0 0.00 0.00 0.00 76 1010.7
20260506032131 61 81 2.0 2.0 0.00 0.00 0.00 77 1010.6
20260506031628 61 218 0.0 1.0 0.00 0.00 0.00 77 1010.6
20260506031125 61 260 1.0 1.0 0.00 0.00 0.00 77 1010.5
20260506030624 60 208 1.0 3.0 0.00 0.00 0.00 77 1010.6
20260506030121 60 187 3.0 5.0 0.00 0.00 0.00 77 1010.6
20260506025618 60 177 4.0 5.0 0.00 0.00 0.00 78 1010.7
20260506025113 60 189 2.0 5.0 0.00 0.00 0.00 78 1010.6
20260506024611 60 110 1.0 2.0 0.00 0.00 0.00 78 1010.5
20260506024107 60 182 6.0 8.0 0.00 0.00 0.00 78 1010.7